This demonstration page uses our WeatherBlox Daily Observations layout. Learn more.

Left ArrowRight Arrow

44.31136, -96.79839

Hourly Observations for August 8, 2022

Temp ( °F °C ) Dew Point ( °F °C ) Humidity (%) Winds ( mph kmh ) Pressure ( in mb ) Visibility ( mi km ) Precip ( " mm )
12:22 am 00:22 Mostly Clear with Mist and Fog 55 13 N/A N/A NNW 3 6 30.11 1020 3 4 0.00 0.00
12:39 am 00:39 Hazy 55 13 N/A N/A Calm 30.11 1020 4 6 0.00 0.00
12:50 am 00:50 Mostly Cloudy with Mist and Fog 55 13 N/A N/A NNW 5 7 30.10 1019 3 4 0.00 0.00
12:56 am 00:56 Mostly Cloudy with Fog 55 13 N/A N/A N 3 6 30.14 1021 1 1 0.00 0.00
1:06 am 01:06 Cloudy with Fog 54 12 N/A N/A N 3 6 30.11 1020 0 0 0.00 0.00
1:20 am 01:20 Cloudy with Fog 54 12 N/A N/A N 3 6 30.11 1020 1 1 0.00 0.00
1:56 am 01:56 Mostly Cloudy with Mist and Fog 52 11 N/A N/A N 5 7 30.15 1021 1 1 0.00 0.00
2:17 am 02:17 Mostly Cloudy with Mist and Fog 52 11 N/A N/A Calm 30.11 1020 2 3 0.00 0.00
2:19 am 02:19 Hazy 52 11 N/A N/A Calm 30.11 1020 4 6 0.00 0.00
2:38 am 02:38 Clear with Mist and Fog 52 11 N/A N/A Calm 30.11 1020 2 3 0.00 0.00
2:45 am 02:45 Clear with Mist and Fog 52 11 N/A N/A Calm 30.11 1020 3 5 0.00 0.00
2:56 am 02:56 Clear 52 11 N/A N/A Calm 30.15 1021 10 16 0.00 0.00
3:13 am 03:13 Clear with Mist and Fog 52 11 N/A N/A NW 3 6 30.11 1020 1 2 0.00 0.00
3:15 am 03:15 Mostly Cloudy with Mist and Fog 50 10 N/A N/A NW 5 7 30.12 1020 1 1 0.00 0.00
3:23 am 03:23 Mostly Cloudy with Fog 50 10 N/A N/A WNW 5 7 30.12 1020 1 1 0.00 0.00
3:46 am 03:46 Cloudy with Fog 48 9 N/A N/A NW 3 6 30.13 1020 0 0 0.00 0.00
3:56 am 03:56 Cloudy with Fog 48 9 N/A N/A Calm 30.15 1021 1 1 0.00 0.00
4:29 am 04:29 Cloudy with Fog 50 10 N/A N/A Calm 30.13 1020 0 0 0.00 0.00
4:40 am 04:40 Cloudy with Mist and Fog 48 9 N/A N/A W 3 6 30.14 1021 1 1 0.00 0.00
4:56 am 04:56 Cloudy with Fog 48 9 N/A N/A Calm 30.16 1021 1 1 0.00 0.00
5:33 am 05:33 Partly Cloudy with Mist and Fog 50 10 N/A N/A Calm 30.14 1021 2 3 0.00 0.00
5:47 am 05:47 Mostly Cloudy with Mist and Fog 50 10 N/A N/A NNW 3 6 30.14 1021 1 1 0.00 0.00
5:56 am 05:56 Mostly Cloudy with Fog 50 10 N/A N/A Calm 30.18 1022 1 1 0.00 0.00
6:04 am 06:04 Cloudy with Fog 50 10 N/A N/A N 3 6 30.15 1021 0 0 0.00 0.00
6:56 am 06:56 Cloudy with Fog 52 11 N/A N/A Calm 30.19 1023 0 0 0.00 0.00
7:08 am 07:08 Mostly Cloudy with Mist and Fog 54 12 54 12 100 100 Calm 30.16 1021 1 1 0.00 0.00
7:13 am 07:13 Partly Cloudy with Mist and Fog 54 12 54 12 100 100 Calm 30.16 1021 2 3 0.00 0.00
7:16 am 07:16 Partly Cloudy with Mist and Fog 54 12 54 12 100 100 Calm 30.16 1021 4 6 0.00 0.00
7:56 am 07:56 Sunny 56 13.3 56 13.3 100 100 Calm 30.20 1023 10 16 0.00 0.00
8:25 am 08:25 Mostly Sunny 59 15 59 15 100 100 Calm 30.15 1021 10 16 0.00 0.00
8:38 am 08:38 Mostly Cloudy 61 16 61 16 100 100 Calm 30.14 1021 10 16 0.00 0.00
8:46 am 08:46 Partly Cloudy 61 16 61 16 100 100 NNW 3 6 30.14 1021 10 16 0.00 0.00
8:56 am 08:56 Partly Cloudy 59 15 59 15 100 100 NW 3 6 30.20 1023 10 16 0.00 0.00
9:56 am 09:56 Mostly Sunny 63 17.2 60 15.6 90 90 NW 5 7 30.20 1023 10 16 0.00 0.00
10:56 am 10:56 Sunny 67 19.4 55 12.8 66 66 N 7 11 30.18 1022 10 16 0.00 0.00
11:56 am 11:56 Sunny 70 21.1 54 12.2 57 57 NNE 6 9 30.19 1022 10 16 0.00 0.00
12:56 pm 12:56 Sunny 72 22.2 56 13.3 57 57 VRB 5 7 30.18 1022 10 16 0.00 0.00
1:56 pm 13:56 Sunny 74 23.3 55 12.8 52 52 ENE 3 6 30.18 1022 10 16 0.00 0.00
2:56 pm 14:56 Sunny 76 24.4 57 13.9 52 52 VRB 5 7 30.16 1022 10 16 0.00 0.00
3:56 pm 15:56 Sunny 78 25.6 56 13.3 47 47 SSW 5 7 30.16 1021 10 16 0.00 0.00
4:56 pm 16:56 Partly Cloudy 78 25.6 57 13.9 48 48 S 6 9 30.14 1021 10 16 0.00 0.00
5:56 pm 17:56 Sunny 78 25.6 56 13.3 47 47 WSW 5 7 30.13 1020 10 16 0.00 0.00
6:56 pm 18:56 Sunny 77 25 57 13.9 50 50 VRB 5 7 30.12 1020 10 16 0.00 0.00
7:56 pm 19:56 Sunny 75 23.9 55 12.8 50 50 W 3 6 30.11 1020 10 16 0.00 0.00
8:56 pm 20:56 Clear 67 19.4 56 13.3 68 68 Calm 30.12 1020 10 16 0.00 0.00
9:56 pm 21:56 Clear 65 18.3 57 13.9 76 76 SE 5 7 30.13 1020 10 16 0.00 0.00
10:56 pm 22:56 Clear 61 16.1 57 13.9 87 87 Calm 30.14 1021 10 16 0.00 0.00
11:56 pm 23:56 Clear 60 15.6 58 14.4 93 93 SE 7 11 30.14 1021 10 16 0.00 0.00

Powered by AerisWeather